Location: Hains Lake
(37.8540°N, 99.8578°W)
Time: 10:40:33
(UTC+00:00)

Tiros 1 despin weight - Pass Details

Date: 20 April 2021
Orbit: 593 x 642 km, 48.2° (Epoch: 07 May)

Event Time Altitude Azimuth Distance (km) Brightness Sun altitude
Rises 15:15:25 0° 301° (WNW) 2,883 ? 37.9°
Reaches altitude 10° 15:18:07 10° 315° (NW) 1,967 ? 38.4°
Maximum altitude 15:21:47 24° 10° (N) 1,276 ? 39.1°
Drops below altitude 10° 15:25:24 10° 64° (ENE) 1,942 ? 39.8°
Sets 15:28:03 0° 79° (ENE) 2,836 ? 40.3°
